COSMOS 2251 DEB, 34610

Orbit data source: Space-Track

COSMOS 2251 DEB, 34610 is space debris in LEO originally from a launch on Wed, 16 Jun 1993 UTC launched from the Plesetsk Missile And Space Complex (PKMTR). The debris from Iridium 33, an American commercial communications satellite, has been tracked extensively since its accidental collision with the defunct Russian satellite Cosmos 2251 in 2009. This event, occurring at high speed in low Earth orbit (LEO), generated thousands of pieces of space debris, significantly increasing the risk of further collisions. The Iridium 33 debris cloud has impacted space traffic management and orbital debris mitigation strategies, making it a subject of ongoing study in space situational awareness.

Loading next visibility...
Identifier
34610, 1993-036WF
Orbit
LEO
Country
Flag of CISCIS
Related business
Manufacturer
Unknown
Mission
Spacecraft
Bus & Motor
Unknown
Mass
Unknown
Launch date (UTC)
1993-06-16 (33 years ago)
Launch vehicle
Unknown
Launch site
Plesetsk Missile And Space Complex (PKMTR)
Object type
Payload
Rocket body
Debris
Shape & HBR
Unknown shape, 0.1 m
Radar Cross Section
Small (<0.1 m²)

Expand to show TLE details & history
Last TLE update: 4 days ago

TLE from 4 days ago
0 COSMOS 2251 DEB
1 34610U 93036WF  25350.82179244  .00002479  00000-0  12904-2 0  9997
2 34610  74.0182 255.1605 0180501  24.8660 336.1040 14.07083274856173
Epoch: 2025-12-16T19:43Z
TLE epoch observation values (Epoch: 2025-12-16T19:43:22.866Z)
Latitude
0.00001°
Longitude
-126.38527°
Altitude
752.718 km
Speed
7.54 km/s
True Right ascension
17h 00m 38s
True Declination
0° 00' 00"
Sunlit
Object was in daylight at epoch
Visualization orbit readout
Latitude
Unknown
Longitude
Unknown
Altitude
Unknown
Speed
Unknown
Apparent Right ascension
Unknown
Apparent Declination
Unknown
Sunlit
N/A
Visualization observer readout
Local Sidereal Time
06:49:32
Azimuth
Unknown
Elevation
Unknown
Doppler factor
Unknown
Orbital elements
Apogee altitude
997.802 km
Perigee altitude
736.251 km
Semi-major axis
7,245.163 km
Eccentricity
0.01805
Inclination
74.0182°
RAAN
255.1605°
Arg. of periapsis
24.866°
True anomaly
335.24854°
Mean anomaly
336.104°
Eccentric anomaly
335.67805°
Mean motion
3.51942 °/min
Orbital period
102.29 mins
BSTAR
0.0012904
Loading maneuver chart data...
Computing Atmospheric mass density...

Documentation

Showing up to 5 results
|